Theta_e
318 316 320 321 322 323 326 331 334 338 334 325 326 330 325 325 332 333 333 334 337 333 332 336 338 339 342 345 343 341 339 344 345 339 342 339 334 335 335 333 330 334 338 337 337 338 338 339 338 338 336 332 330 332 334 333 333 333 333 332 333 333 333 333 333 334 334 335 333 332 332 332 334 333 332 332 331 330 331 332 332 332 331 330 329 327 328 328 327 325 324 324 325 325 324 324 323
318 318 322 322 323 322 329 338 334 336 337 324 321 326 324 331 337 334 337 335 335 332 333 337 338 338 339 339 338 343 342 339 338 337 336 334 335 336 335 333 329 333 337 336 337 338 338 339 337 338 337 332 329 329 331 332 332 331 332 332 333 332 332 333 332 333 333 334 333 332 334 334 334 333 332 333 330 328 330 331 331 331 331 331 331 329 328 328 327 325 323 323 325 324 323 323 323
318 319 322 322 324 324 336 340 329 332 332 321 320 323 328 338 337 334 337 337 336 333 334 338 338 337 339 345 343 345 344 337 337 335 333 333 335 334 334 333 329 331 336 336 336 338 339 338 337 337 335 331 331 332 331 331 333 332 332 332 331 332 332 332 332 332 332 332 332 332 334 334 334 334 334 332 329 329 329 329 330 330 331 331 330 328 327 327 326 323 321 323 325 324 323 323 322
318 320 321 322 329 332 341 336 331 336 325 321 325 325 334 339 336 334 334 336 337 335 335 338 339 336 342 349 342 343 343 337 336 334 333 333 334 334 333 332 330 332 335 336 336 338 338 337 336 334 332 328 331 333 331 332 333 332 332 332 332 332 332 332 332 332 332 332 332 332 333 334 334 335 333 329 329 332 330 328 329 331 329 328 327 327 326 326 326 324 322 324 324 323 323 322 322
319 322 320 322 332 332 332 328 334 336 321 328 332 330 336 335 337 335 332 334 337 338 335 338 339 336 340 343 340 345 343 337 336 334 334 333 334 334 333 333 332 333 335 335 336 338 338 336 334 332 330 327 329 333 332 332 331 332 332 332 332 333 331 331 331 332 332 331 332 332 333 334 334 334 332 329 329 332 331 328 328 330 328 326 327 327 327 326 325 324 322 323 323 323 323 322 322
320 322 323 324 325 325 330 328 326 324 321 335 335 333 338 333 337 336 333 334 335 336 337 343 340 339 341 337 338 341 338 337 336 334 334 333 334 333 332 332 331 333 334 334 335 338 338 335 334 332 329 326 328 331 331 331 331 331 332 331 331 331 330 330 330 331 331 331 332 332 333 333 332 333 332 331 330 330 331 329 328 329 328 328 329 327 327 326 324 321 319 321 321 322 322 322 322
320 322 329 331 327 327 334 328 322 322 320 332 337 335 337 334 335 335 334 331 331 333 337 343 339 343 343 337 339 337 335 336 334 334 334 333 333 332 333 332 331 332 332 333 335 338 337 335 334 331 329 327 327 328 329 330 331 331 330 330 330 329 329 330 331 331 332 332 333 332 333 333 333 333 333 333 330 329 329 327 328 329 328 328 328 327 327 325 322 320 318 319 320 321 321 321 321
322 322 332 340 337 336 334 326 327 330 319 324 335 333 334 335 335 335 336 332 331 332 334 337 339 348 342 338 345 337 334 335 334 334 333 333 333 332 333 333 333 333 333 332 334 338 337 335 334 332 330 328 327 327 328 331 331 330 330 330 330 330 329 331 330 329 331 332 332 332 331 333 333 333 333 332 330 330 328 326 326 327 327 327 327 326 326 324 321 318 319 319 320 320 320 321 321
322 322 331 336 333 336 336 330 325 325 320 324 330 330 333 333 334 334 334 331 330 333 332 334 343 352 343 340 344 336 333 335 334 334 333 333 333 333 333 333 334 334 334 332 334 338 337 336 334 332 331 330 329 327 327 329 330 330 331 331 330 330 331 330 330 329 329 331 331 331 331 332 332 332 332 331 331 330 327 325 326 327 327 327 326 326 325 323 320 318 319 319 320 321 321 322 322
325 324 330 335 332 331 332 333 325 319 320 323 326 329 332 329 330 330 330 329 330 334 330 335 345 347 341 339 340 335 333 334 333 333 333 333 332 333 333 334 334 334 334 332 334 337 337 336 334 332 330 331 331 328 328 329 329 329 331 331 330 331 331 330 330 330 329 330 331 331 331 331 331 330 331 331 331 330 328 325 325 326 326 327 326 326 324 322 319 319 319 319 320 320 321 322 322
330 332 337 337 331 326 328 333 326 320 320 320 322 325 329 327 326 326 329 329 332 335 329 337 344 340 339 339 339 336 333 333 333 333 331 332 331 332 333 334 333 333 334 332 334 338 338 337 334 331 330 332 331 329 329 330 328 329 331 330 330 331 331 330 331 330 330 330 330 331 331 331 330 330 331 331 331 330 328 325 325 326 326 326 326 325 324 321 319 319 319 318 318 319 320 322 322
328 335 343 335 329 327 330 331 321 322 324 322 321 321 324 326 325 326 331 331 334 336 328 336 343 340 342 340 339 334 333 333 332 332 331 331 331 332 333 333 334 333 332 331 335 338 337 337 333 330 331 331 330 329 329 330 328 328 331 330 329 329 329 330 329 329 329 329 330 330 330 330 330 330 330 330 329 330 328 326 326 327 326 326 324 323 322 320 319 319 318 317 317 317 318 319 321
330 335 338 332 334 334 330 326 321 327 327 324 322 321 324 326 326 325 330 333 332 332 325 331 338 342 343 339 338 334 333 334 332 332 331 331 332 333 334 334 334 334 332 332 337 338 337 337 332 329 330 330 330 328 327 330 328 325 328 329 329 329 328 327 327 328 329 329 330 329 329 330 330 330 329 328 328 329 328 326 325 325 324 324 323 321 320 319 319 318 318 317 317 316 316 316 319
332 336 333 328 335 336 330 325 324 328 324 325 324 323 326 325 326 324 329 334 331 330 325 330 337 344 343 338 339 335 334 333 332 332 331 331 332 334 335 335 335 334 334 334 337 337 337 335 330 329 331 330 330 328 326 329 328 325 327 327 328 328 327 326 326 328 329 328 328 328 329 330 330 330 329 328 328 327 326 325 324 323 323 323 321 320 319 319 319 318 318 317 316 316 316 316 317
328 336 335 329 332 331 331 325 325 329 324 325 324 324 327 322 325 326 331 337 332 328 325 328 334 340 343 342 342 336 334 333 332 332 331 332 333 335 335 335 335 335 335 336 337 336 336 334 331 330 330 330 329 328 326 326 326 324 325 327 327 327 327 326 325 326 327 327 327 327 327 329 330 329 329 328 326 325 325 324 323 322 321 320 319 319 319 319 319 318 318 317 317 318 318 318 319
330 338 334 328 329 329 331 326 324 329 325 327 324 324 326 321 325 325 327 334 330 328 329 328 328 333 339 344 344 335 333 334 332 331 332 335 336 336 336 336 336 335 336 337 337 336 335 334 331 331 330 330 329 327 325 324 325 324 325 326 327 328 327 327 325 325 326 326 327 327 327 328 329 329 328 328 326 324 324 324 323 320 318 318 319 318 319 319 319 318 318 317 319 320 319 320 321
335 338 332 328 331 328 326 325 324 328 327 326 324 324 327 322 323 321 320 329 330 332 337 333 329 334 337 339 338 334 334 333 332 331 331 335 337 337 337 337 336 336 336 337 337 336 335 334 332 331 331 331 330 328 325 324 324 324 324 325 326 328 328 327 325 324 326 326 327 327 326 327 328 328 328 327 326 325 324 324 323 320 318 319 319 318 319 318 319 318 318 319 320 321 320 320 321
334 335 331 329 334 329 321 323 324 326 325 324 324 326 328 323 323 321 320 327 330 334 337 336 336 335 334 334 334 334 333 332 332 331 330 332 334 336 337 337 337 336 336 336 336 336 335 334 332 332 332 331 330 328 327 325 323 323 324 325 326 327 328 327 325 325 325 325 326 326 326 326 326 326 326 326 326 325 325 324 322 319 318 318 319 318 319 318 319 319 318 320 321 321 320 321 322
333 335 329 331 336 326 317 320 320 319 322 324 323 325 327 324 324 321 321 324 331 340 335 336 344 337 333 334 334 333 332 331 331 331 330 330 331 333 334 335 336 336 336 336 336 336 335 334 333 333 333 332 331 329 328 327 324 322 323 325 325 326 327 327 326 325 324 324 325 325 325 324 324 324 324 324 325 324 323 322 321 319 319 318 318 319 318 318 319 318 319 319 320 321 320 320 322
333 335 330 335 333 320 315 317 317 316 319 322 320 321 323 322 322 322 323 324 329 344 340 341 346 338 336 334 332 333 332 331 330 330 330 329 330 330 332 333 335 336 336 335 335 336 335 335 335 334 333 332 332 330 329 328 325 323 322 323 324 325 326 327 327 324 323 322 323 323 323 322 321 321 321 322 323 323 322 320 319 319 319 319 318 319 318 318 318 318 318 318 320 320 320 320 321
328 330 332 332 323 317 316 315 316 317 318 320 319 319 320 318 320 323 324 323 325 331 335 347 350 338 335 334 331 333 332 331 330 329 329 329 329 329 331 332 333 334 335 335 334 335 335 335 334 334 334 333 332 331 330 329 327 325 323 322 323 324 325 327 328 326 323 321 321 322 323 323 322 322 321 320 320 321 320 318 318 319 319 319 318 318 318 318 318 318 318 318 320 321 320 320 320
325 325 330 327 318 318 317 315 317 316 317 320 319 318 318 315 317 323 325 326 327 325 325 337 344 336 334 334 332 332 331 331 330 329 328 328 328 328 330 330 331 330 332 335 334 334 334 334 333 333 333 333 333 332 331 330 328 327 326 323 322 323 324 326 327 326 324 321 322 324 325 325 325 325 324 322 320 318 318 317 317 318 318 318 318 318 318 318 317 317 317 318 321 321 320 321 321
327 326 329 325 318 318 317 316 318 319 320 319 318 316 317 317 316 319 323 326 330 328 323 328 335 333 333 333 332 332 331 331 331 330 329 329 328 328 329 329 330 329 330 333 335 335 334 334 333 332 333 333 333 333 332 331 330 329 327 325 322 321 323 325 324 324 323 322 325 326 326 326 326 326 325 324 322 317 316 317 317 317 318 318 318 318 318 317 317 317 317 319 320 319 320 322 323
328 328 329 325 318 316 317 316 318 321 320 318 318 317 317 318 317 316 319 324 328 325 317 320 332 332 332 333 332 332 331 331 331 331 330 329 330 329 328 329 330 329 329 330 333 335 334 334 334 332 333 333 333 333 333 332 331 330 327 326 324 320 320 321 322 321 321 323 325 326 327 327 326 326 325 324 323 319 316 316 317 317 317 317 317 318 317 317 317 317 317 319 318 319 321 323 324
327 331 330 324 318 315 318 319 318 321 318 317 319 321 322 320 317 315 318 324 323 322 317 322 332 332 332 334 332 332 331 331 331 331 331 330 330 329 328 328 328 328 328 329 331 332 331 331 332 332 331 331 332 332 332 332 331 329 327 326 326 324 319 317 318 319 321 322 324 325 326 327 326 326 325 325 323 320 317 317 317 317 318 318 318 318 317 317 317 316 315 317 319 321 323 324 324
328 331 329 324 321 316 316 317 319 322 318 319 322 324 327 323 318 317 321 321 320 327 328 331 335 334 334 334 332 331 331 331 331 331 331 330 330 329 328 328 328 327 326 328 329 330 330 330 330 330 329 329 331 332 332 331 331 329 327 326 327 326 323 319 319 320 321 322 322 323 325 326 326 326 326 325 323 319 318 319 318 318 318 318 318 318 317 316 316 314 315 318 322 323 324 324 324
329 329 327 326 326 321 320 318 318 320 318 320 323 324 327 324 318 321 329 321 320 334 334 333 336 336 335 334 332 332 331 331 331 332 331 331 330 329 329 328 328 329 327 328 327 327 328 328 329 329 328 328 330 331 331 330 330 329 327 326 327 327 325 324 324 323 321 322 322 322 324 326 326 326 326 326 323 318 317 319 318 318 318 318 318 317 316 315 314 314 318 322 323 324 324 324 324
329 327 326 324 326 327 328 325 320 318 319 321 321 323 326 322 318 323 332 320 321 339 335 331 337 336 335 335 333 331 331 331 331 331 331 331 331 330 330 329 328 329 329 328 327 327 326 326 327 328 328 328 328 329 329 329 329 328 327 326 328 327 326 325 325 325 323 322 322 322 323 326 326 326 326 324 322 317 316 316 316 317 317 316 316 315 315 314 314 317 322 324 324 325 325 325 324
327 326 328 324 324 327 328 326 323 320 322 321 320 326 327 323 320 322 326 319 321 339 337 331 335 335 336 335 334 332 330 331 331 331 331 331 331 330 330 330 330 329 328 328 328 328 327 326 326 327 327 326 326 327 327 328 327 327 327 326 327 327 326 325 325 325 325 324 322 321 323 325 325 325 324 321 319 317 316 315 315 316 315 315 314 314 315 316 318 320 323 324 324 325 325 325 324
327 327 329 328 328 330 327 324 325 323 322 322 323 330 331 328 326 321 321 319 322 335 338 332 331 333 334 335 334 333 330 330 330 331 332 332 332 332 330 330 330 331 329 328 328 328 328 327 327 327 326 325 324 324 325 325 324 324 324 325 326 327 326 326 325 325 326 326 324 321 321 324 324 323 321 319 320 320 319 317 316 315 315 314 313 316 318 319 321 323 324 324 324 325 325 325 323
328 327 329 332 335 336 331 325 326 325 322 323 327 330 332 333 332 325 319 318 320 329 333 332 331 331 331 334 335 334 331 330 330 331 332 332 332 332 332 331 330 331 331 329 328 328 328 327 327 326 326 325 325 324 324 322 320 321 323 323 324 326 326 325 325 325 325 325 325 324 322 322 322 320 319 321 322 323 323 321 318 317 316 317 318 321 323 323 324 324 324 324 324 324 324 323 323
328 330 332 334 335 337 333 325 326 327 322 321 328 331 331 330 332 330 321 316 318 321 324 327 329 330 329 331 333 334 332 330 330 331 331 332 332 332 332 332 331 331 332 330 328 328 328 328 327 327 326 326 326 325 324 321 319 321 323 322 323 324 324 324 324 324 324 323 324 325 323 322 321 318 318 321 323 323 324 323 320 319 321 323 324 324 325 324 325 324 325 325 324 324 324 324 324
329 334 337 334 333 333 331 326 325 327 322 319 326 331 332 328 326 327 320 317 318 318 319 321 322 326 326 327 330 333 333 331 330 331 331 332 332 332 332 332 333 332 332 332 330 328 328 328 328 328 327 325 325 326 325 322 320 321 322 322 322 323 322 321 320 321 322 322 322 323 323 322 320 318 318 321 324 323 323 324 322 322 324 326 325 325 325 325 325 325 325 325 324 324 324 325 325
331 334 338 336 332 331 332 328 324 324 322 321 323 326 329 328 325 325 320 317 317 317 317 317 318 321 322 322 325 329 332 332 330 330 331 332 331 332 332 332 333 332 332 331 331 330 328 329 329 329 328 327 326 326 326 324 321 320 321 321 323 323 322 319 318 318 319 321 320 320 320 319 319 318 318 320 323 323 323 324 324 324 325 326 326 326 326 325 325 325 325 325 324 323 324 324 324
331 333 336 336 333 332 333 330 325 322 322 323 323 322 323 324 323 324 323 317 315 316 316 316 316 318 320 320 320 325 330 331 330 329 331 332 332 332 332 332 333 332 332 332 332 331 329 329 329 329 328 328 327 326 326 325 323 322 322 322 324 325 324 322 321 320 318 318 318 317 317 317 317 318 318 319 321 322 323 324 325 325 325 327 327 326 326 326 326 325 325 325 324 323 323 324 324
331 331 332 336 337 335 332 330 325 321 321 323 323 322 321 321 321 321 323 320 316 316 316 316 315 317 319 320 319 321 326 329 328 328 330 332 332 332 332 332 332 333 333 332 332 332 331 330 329 329 328 328 328 327 326 326 325 324 323 324 325 326 326 325 323 322 321 319 318 316 317 318 317 318 318 318 319 320 321 322 323 324 325 326 327 327 326 326 326 326 326 326 324 323 324 324 323
331 330 332 335 337 338 333 330 325 320 321 323 322 322 321 321 321 320 321 321 320 319 317 316 315 315 317 320 321 320 323 325 325 327 329 331 332 333 333 333 333 333 333 333 332 332 332 331 329 329 328 328 328 328 327 327 326 325 324 325 326 326 327 326 325 323 322 321 320 319 318 318 318 318 318 318 318 318 319 319 321 322 324 326 326 326 326 326 326 326 326 326 325 323 324 324 323
330 331 332 333 336 338 330 326 325 319 322 326 324 322 321 319 319 318 319 319 320 320 319 317 315 315 315 317 320 320 321 322 324 326 327 329 332 332 333 333 333 333 333 333 333 332 332 331 330 330 329 328 328 328 328 327 327 326 325 325 326 326 326 326 325 322 321 321 322 322 321 320 319 319 318 318 318 318 318 318 318 319 320 323 325 326 326 326 326 326 326 326 325 324 324 324 323
331 331 332 335 335 331 324 320 320 318 323 330 327 322 321 319 318 318 318 318 318 318 318 318 316 315 314 314 316 319 321 323 326 326 324 326 330 331 333 333 333 333 333 333 333 332 332 331 331 330 330 329 329 329 328 328 328 327 326 326 326 326 326 325 325 323 323 322 322 322 322 322 321 320 319 318 318 318 319 319 318 318 318 320 323 325 326 326 327 326 326 326 325 325 324 324 324
332 331 332 336 333 330 329 321 316 318 321 325 323 320 319 318 319 319 317 317 317 318 318 317 317 316 315 314 315 318 320 322 325 327 324 324 327 330 332 332 333 333 332 333 333 332 332 332 332 331 331 330 330 330 329 329 329 327 327 326 326 326 326 326 326 325 325 324 324 323 323 323 322 321 320 319 319 319 320 321 320 320 319 320 322 324 326 326 327 327 327 327 326 325 324 324 324
333 332 333 336 332 332 332 321 318 320 320 321 319 322 328 326 324 322 319 318 317 317 318 318 318 317 316 316 316 317 319 321 323 325 324 323 325 328 330 331 332 332 332 332 333 333 332 332 332 332 331 331 331 331 330 329 328 327 326 326 326 326 326 326 327 326 326 326 325 324 324 324 324 323 322 322 322 321 322 323 323 323 322 321 322 324 325 325 326 327 327 327 326 325 324 324 324
333 333 334 337 334 328 324 321 324 325 326 326 320 328 343 339 332 328 324 321 319 317 317 317 318 317 317 317 316 316 318 321 322 323 323 322 324 326 329 331 331 331 332 332 333 333 332 332 332 332 332 332 331 331 331 330 328 328 327 326 326 326 326 327 327 327 327 327 326 325 325 325 325 325 324 324 324 323 324 324 324 325 324 324 323 324 325 325 326 326 327 327 327 326 325 324 324
334 336 335 335 332 326 322 322 330 333 331 326 321 330 342 336 329 328 326 325 322 319 318 317 317 316 317 316 315 316 316 319 321 322 322 321 323 325 326 329 330 331 332 332 333 332 332 332 332 332 332 332 332 331 331 330 329 328 328 327 327 327 327 327 327 327 327 327 327 327 327 326 326 326 326 326 325 325 325 325 325 326 326 325 325 325 325 326 326 326 326 326 327 326 325 324 324
336 336 333 331 328 325 323 324 335 337 330 328 327 328 331 330 327 325 324 325 323 322 320 319 317 316 317 316 315 315 314 316 319 321 322 320 320 324 325 328 330 331 332 332 332 332 332 332 332 332 332 332 332 331 331 330 330 329 329 329 328 328 328 327 327 327 327 327 327 328 327 327 327 327 327 327 327 327 326 326 326 327 327 327 327 327 326 326 326 326 326 327 327 326 326 325 324
335 331 329 331 329 326 325 327 335 333 329 334 330 323 329 335 334 329 327 326 326 325 324 322 320 318 317 316 316 315 314 314 316 318 319 317 318 322 325 327 328 330 330 331 331 332 332 332 332 332 332 332 332 332 332 331 331 330 330 329 329 329 329 328 328 328 328 328 328 328 329 329 328 328 329 328 328 328 327 328 327 327 328 328 328 328 328 327 326 326 326 326 327 327 326 326 324
329 328 328 329 330 328 327 332 336 332 333 337 329 327 336 338 335 333 329 328 326 325 326 324 322 321 318 317 317 316 315 314 315 316 315 314 317 321 323 325 327 328 329 330 330 331 331 331 332 332 332 332 332 332 332 332 331 331 330 330 330 330 329 329 329 328 328 328 328 329 329 329 329 329 329 329 329 329 329 329 329 329 329 329 329 329 329 328 327 327 327 327 327 327 327 326 325
327 330 329 328 331 332 333 336 336 335 336 335 329 332 338 337 337 334 328 328 327 323 325 324 322 323 321 319 319 318 317 316 316 316 313 311 314 318 322 324 326 327 328 329 329 330 330 331 331 332 332 332 332 332 332 332 331 331 331 331 330 330 330 329 329 329 328 328 328 328 328 329 329 329 330 330 330 329 329 330 330 330 330 330 329 329 329 329 328 328 327 327 327 327 327 326 326
329 333 331 331 334 335 336 335 334 336 337 332 328 329 334 336 337 335 329 328 325 322 324 325 324 324 321 320 320 318 319 317 316 317 315 313 314 316 319 323 324 326 327 328 329 329 329 330 330 331 331 331 331 331 331 331 331 331 331 331 331 330 330 329 329 329 328 328 328 328 328 328 329 329 329 329 330 330 330 329 329 330 330 330 330 330 330 329 329 329 328 328 328 328 327 327 327
329 332 332 335 335 334 337 335 333 336 334 328 325 326 331 332 330 330 327 324 322 321 320 321 323 323 321 321 322 320 320 319 318 317 317 317 315 312 315 320 323 324 326 327 328 328 329 329 329 329 330 330 330 331 331 331 330 331 331 330 330 330 329 329 329 329 328 328 328 328 328 328 328 328 328 328 329 329 329 329 329 329 329 329 330 329 329 329 329 330 329 329 329 328 328 327 327
328 328 332 336 335 337 339 335 335 337 331 324 322 326 331 331 329 326 325 323 323 323 322 322 321 320 320 323 325 324 322 320 319 317 317 319 315 310 311 316 320 322 324 326 327 328 328 328 328 328 329 329 329 330 330 330 330 330 330 330 330 329 329 329 329 329 328 328 328 328 328 329 328 328 328 328 328 328 329 329 329 329 329 329 329 329 328 329 329 330 330 330 330 329 329 329 328
327 328 333 335 335 337 339 336 336 334 328 321 320 328 333 334 333 327 323 323 323 323 323 321 320 319 320 327 329 326 325 323 320 318 318 317 312 309 311 312 315 319 322 324 326 327 327 327 328 328 328 328 328 329 329 329 330 330 330 330 329 329 329 329 328 328 328 328 328 328 328 328 328 328 328 328 328 328 328 329 329 329 329 329 329 329 329 329 329 330 330 330 329 329 328 329 328
329 331 335 335 335 337 335 332 331 330 327 323 322 328 331 330 328 321 319 322 322 321 320 318 321 321 320 327 330 329 330 328 323 322 323 317 309 308 310 311 312 315 317 320 323 325 326 327 327 327 328 327 327 328 328 328 329 329 329 329 329 329 329 328 328 328 328 328 328 328 328 328 328 327 328 328 328 328 328 329 329 329 330 329 329 329 329 330 330 330 330 330 329 328 328 328 328
329 330 333 330 330 336 334 326 324 326 330 328 324 327 329 328 325 321 322 323 321 321 320 319 322 322 321 327 331 332 333 330 326 326 327 319 309 307 310 311 312 313 313 316 319 321 324 325 327 327 327 328 327 327 328 327 328 328 328 329 329 329 329 329 329 328 328 328 328 328 328 328 328 328 328 328 328 329 329 329 329 329 329 329 329 329 329 330 330 330 330 329 327 326 326 327 327
329 330 330 326 327 334 336 331 326 327 332 330 324 325 329 328 328 329 329 326 325 326 324 320 319 320 322 326 328 330 331 328 327 327 325 317 306 305 309 310 312 313 313 314 316 319 322 323 325 325 326 327 326 327 327 327 327 328 328 329 328 329 329 329 329 329 329 329 329 329 329 329 329 328 328 328 328 328 328 328 328 328 328 328 328 329 329 330 330 329 328 326 325 324 324 325 327
328 329 327 329 332 332 334 334 331 329 331 333 328 324 326 326 328 331 327 326 330 331 326 321 319 320 322 323 322 324 325 327 329 328 329 323 308 304 308 310 311 312 311 312 313 315 318 320 322 324 324 326 326 326 326 326 327 327 328 328 328 329 329 329 329 330 329 330 329 329 329 329 329 329 328 328 328 328 328 328 328 328 328 328 328 328 329 329 329 328 326 326 325 324 324 325 326
326 327 326 329 332 330 331 333 332 330 329 333 330 325 328 328 324 324 322 321 324 325 324 325 325 323 322 321 320 323 325 329 333 331 333 328 311 304 308 309 309 311 311 311 312 312 313 314 317 319 320 322 323 323 325 325 325 326 327 328 328 328 329 329 329 329 329 329 329 329 329 329 329 328 328 327 327 328 327 327 327 327 327 328 328 328 328 328 328 327 326 326 325 325 324 325 325
324 327 327 328 327 327 332 331 331 333 332 333 332 330 335 332 323 321 322 320 321 323 324 326 329 326 321 318 319 326 330 333 337 334 335 332 312 305 309 309 309 311 312 312 313 312 312 311 311 312 313 314 315 317 318 318 319 321 322 323 324 324 325 326 327 327 328 328 328 328 328 328 327 327 327 327 326 326 326 326 326 326 327 327 327 327 327 327 326 324 324 324 324 325 325 324 324
326 327 327 327 325 326 331 331 330 332 331 332 333 332 336 334 324 319 319 320 321 323 325 325 329 328 322 319 319 324 331 338 341 338 338 331 311 304 308 309 309 311 311 311 312 312 313 312 311 311 310 310 310 311 311 312 313 314 315 317 319 321 323 324 325 326 326 327 327 326 326 326 326 326 326 326 326 326 326 326 326 326 326 326 326 327 327 327 325 325 325 324 324 325 324 324 323
Wind_Speed
9 9 9 10 8 3 2 4 2 2 3 2 2 1 1 2 1 3 3 2 2 2 3 3 5 5 6 7 8 7 3 1 3 4 2 3 17 23 16 16 19 22 22 19 17 15 15 15 15 14 13 13 14 13 13 13 14 15 15 14 15 15 15 14 12 13 14 15 15 15 15 14 16 17 16 17 18 19 18 18 18 18 17 17 16 16 16 16 16 17 18 19 21 23 22 22 22
9 9 9 9 6 3 1 3 3 3 4 2 2 1 2 4 3 2 3 3 4 3 2 7 11 10 10 10 8 6 4 3 2 3 2 13 21 18 16 17 19 21 22 20 17 16 16 16 15 14 12 12 13 13 14 14 14 15 15 14 14 15 15 15 14 14 14 14 15 15 14 14 15 15 16 17 18 18 18 18 18 17 17 17 16 16 16 16 17 17 19 21 22 22 22 21 20
10 9 10 7 4 3 1 3 3 1 4 2 2 2 2 3 3 4 5 5 6 6 6 8 9 6 6 6 4 4 1 4 2 3 5 17 18 16 19 17 18 21 21 20 17 16 18 17 17 15 13 13 14 14 14 14 14 15 14 13 15 15 14 14 15 15 14 14 15 15 14 14 15 15 16 17 17 17 18 19 18 17 16 16 15 15 16 17 17 17 19 21 22 22 21 21 20
9 9 10 5 4 4 4 3 2 4 3 3 1 4 2 5 6 5 3 3 4 5 3 4 5 2 4 6 3 4 2 1 3 4 5 13 16 20 21 17 19 20 21 19 17 17 18 18 17 16 14 14 15 15 14 14 14 14 14 14 15 15 15 15 15 15 15 14 15 15 14 14 15 15 16 17 16 17 18 18 17 17 15 15 14 15 16 16 16 17 18 19 21 21 21 21 21
8 8 7 4 3 1 2 3 2 4 3 4 2 4 4 5 6 5 2 1 1 4 4 3 3 2 4 5 1 2 3 2 4 6 8 14 19 21 19 18 19 20 20 18 17 17 18 18 17 15 14 15 16 16 14 15 15 14 15 15 15 15 15 16 16 15 15 15 15 16 15 14 14 14 15 15 16 16 16 16 16 15 15 15 16 16 16 16 16 17 18 19 20 20 20 19 20
7 6 6 5 3 1 2 2 1 1 3 5 4 4 6 5 6 6 1 2 4 5 5 4 4 3 4 2 2 3 5 4 6 8 13 19 20 19 18 18 18 20 20 17 17 17 19 18 17 15 15 15 15 16 15 15 14 14 15 14 14 15 15 15 16 15 14 15 15 15 15 14 14 14 14 15 16 15 15 16 16 15 15 16 16 16 16 16 16 18 19 19 19 19 18 17 17
8 4 4 5 2 2 4 2 2 1 1 4 6 6 6 6 5 6 4 3 4 5 5 4 7 7 2 0 3 0 4 4 8 12 18 23 21 19 19 17 18 19 18 17 17 17 19 18 17 15 15 15 14 14 15 16 14 14 14 14 14 14 15 15 15 15 15 15 15 15 14 13 14 15 15 15 15 14 14 14 14 14 14 15 16 16 15 15 17 19 19 19 18 17 16 15 15
7 3 1 4 2 3 3 1 3 2 1 2 5 6 7 7 6 5 3 2 2 2 5 4 6 7 1 0 2 3 2 8 12 18 23 24 22 21 20 18 19 19 17 17 17 18 19 18 16 15 14 14 13 13 14 15 14 14 14 14 14 14 14 14 14 15 14 14 15 15 14 13 13 14 14 14 13 13 12 12 13 14 14 15 15 15 15 15 17 19 18 18 17 16 16 15 15
5 3 1 3 2 3 2 2 2 2 0 2 3 5 6 7 5 5 3 1 3 3 4 4 4 5 1 3 2 3 3 12 17 23 25 24 22 21 21 19 19 19 18 17 18 19 19 18 16 15 14 13 13 12 13 15 14 13 14 14 14 14 13 12 14 14 13 13 14 14 13 12 13 13 13 13 13 12 12 12 14 14 13 14 14 14 15 15 17 18 17 17 16 16 15 15 14
4 3 2 2 1 3 3 2 1 2 2 3 4 5 6 6 4 5 5 3 3 4 2 1 6 6 5 4 1 1 7 18 23 25 23 23 22 21 21 19 18 18 18 18 18 20 20 18 16 15 14 13 12 11 13 14 13 13 13 14 13 13 12 11 12 13 13 13 14 14 13 12 12 12 12 13 13 12 12 12 13 13 13 14 14 14 14 15 16 17 17 16 15 14 14 13 13
2 3 3 3 2 2 1 2 2 2 2 2 2 5 6 5 5 3 4 4 1 5 3 2 7 6 6 3 1 2 13 22 25 25 22 22 22 20 21 19 18 16 17 19 20 20 20 18 16 15 14 14 12 11 13 13 13 13 14 14 13 12 11 12 12 12 13 13 14 14 13 12 11 12 12 12 12 11 11 11 12 13 13 13 13 13 13 15 16 15 15 15 14 14 13 12 12
2 3 3 3 1 1 2 2 3 3 3 0 4 4 4 6 7 4 5 5 2 5 2 1 6 5 6 1 1 6 15 21 23 24 22 22 21 19 19 20 19 15 16 20 21 20 20 18 17 15 14 14 12 12 13 13 12 13 14 14 13 11 11 12 12 12 13 13 13 13 13 13 12 12 12 12 11 10 10 10 12 12 12 12 13 14 14 15 14 14 14 13 13 13 12 11 10
3 1 4 2 3 2 2 3 2 2 3 2 4 3 2 5 5 7 6 4 3 5 0 3 8 5 4 2 2 5 12 19 22 22 21 22 21 19 19 20 18 16 17 21 22 21 20 18 17 16 15 14 12 11 13 13 11 11 14 14 15 13 12 12 11 12 13 14 14 14 14 13 13 13 12 12 11 11 10 10 11 11 12 12 13 14 14 14 13 13 12 12 12 11 11 11 10
2 2 4 1 1 2 3 3 2 2 2 4 3 2 1 3 3 6 7 5 1 3 4 5 9 6 3 3 3 4 11 20 21 18 20 22 21 19 20 19 17 16 18 21 22 22 20 19 18 16 15 14 12 11 13 13 11 10 12 13 15 14 13 11 11 13 14 13 14 14 13 13 13 12 11 11 11 11 11 11 11 11 12 13 13 14 13 13 12 11 11 11 10 10 11 11 10
3 2 3 1 1 1 2 3 3 4 4 4 2 1 3 2 3 4 5 7 2 2 4 5 7 3 4 7 6 8 17 23 20 19 21 22 21 19 19 18 16 17 19 21 22 22 20 19 18 16 15 14 12 12 12 13 11 10 11 12 13 14 13 10 11 13 12 12 12 13 13 13 13 12 11 11 10 10 11 11 11 11 13 13 13 13 12 11 10 10 9 9 9 10 10 11 11
2 3 4 1 1 1 2 2 3 4 4 4 3 3 6 2 1 3 2 6 2 2 3 2 1 1 8 9 8 17 26 26 22 22 23 22 21 20 19 18 16 17 19 21 22 22 21 21 19 17 16 14 12 12 11 12 12 11 11 12 12 12 13 11 10 11 11 11 11 12 13 13 13 12 11 10 10 10 11 11 10 11 12 13 13 12 12 10 9 8 8 8 8 8 10 11 10
3 3 3 1 1 2 3 3 4 4 4 4 4 2 7 0 1 1 1 6 5 2 4 1 3 2 8 6 10 27 31 27 26 26 24 22 23 21 21 20 19 20 21 21 21 22 22 21 20 19 18 15 14 13 12 12 12 12 11 11 11 12 12 11 11 11 11 11 11 12 13 13 14 12 11 10 10 10 10 9 9 11 12 12 12 11 11 10 9 7 7 6 6 6 8 10 9
3 2 3 2 3 3 3 5 5 3 4 5 5 4 8 5 1 1 3 7 5 4 6 3 6 6 3 6 18 31 29 28 29 27 24 22 23 22 21 22 22 23 22 22 21 22 22 21 20 20 18 16 15 14 13 12 12 12 12 12 12 12 13 12 11 12 12 11 11 12 12 13 13 13 11 10 10 10 9 9 9 10 11 12 11 11 10 9 8 7 6 5 5 4 6 8 8
3 3 3 3 4 3 4 5 5 2 4 5 3 3 6 7 5 2 3 3 4 5 4 4 5 6 6 12 24 29 27 28 27 28 25 21 22 22 21 21 22 24 24 23 23 22 22 22 21 21 18 16 16 15 14 13 12 12 13 13 12 13 13 13 12 12 12 12 12 11 11 12 12 12 12 11 11 10 10 9 9 10 11 11 11 10 9 9 8 7 6 5 4 3 3 6 5
2 3 3 5 3 2 3 2 3 2 3 4 2 1 4 5 4 3 5 6 4 4 2 1 1 2 6 11 21 25 25 25 24 26 25 23 21 21 23 22 23 25 26 25 24 23 22 22 21 20 18 17 16 16 15 14 13 12 13 13 13 13 14 14 13 12 12 12 12 12 11 11 11 10 10 11 11 11 10 10 10 11 11 11 10 10 9 8 7 6 6 4 3 3 2 3 3
1 3 3 5 3 3 3 3 0 0 4 5 2 3 4 3 2 3 7 7 3 5 7 7 8 10 9 9 16 22 22 21 22 23 23 23 21 21 23 23 23 24 24 25 24 23 22 21 20 20 20 18 17 17 16 14 14 13 13 13 14 14 14 15 14 12 12 12 13 13 12 11 10 9 8 9 10 11 11 10 11 11 12 11 10 9 9 8 7 7 6 5 4 3 1 1 2
1 2 4 4 4 3 5 4 1 1 4 4 2 4 2 1 1 4 8 7 5 6 8 9 11 14 14 14 16 18 18 19 19 21 23 23 23 23 23 23 23 21 21 24 25 24 22 21 20 20 21 19 18 18 16 15 14 14 13 13 14 15 15 15 15 13 12 13 15 14 13 12 11 9 8 8 8 11 12 11 11 12 12 11 10 10 9 8 8 7 6 6 5 3 1 2 2
2 3 3 4 3 3 3 2 1 3 5 4 3 2 1 1 1 3 7 7 7 6 8 10 12 17 20 19 18 16 15 18 19 22 24 25 26 26 26 26 26 24 23 24 26 24 23 22 20 20 22 20 19 19 17 17 15 14 14 14 14 16 17 17 16 15 15 16 17 16 14 12 12 11 10 9 9 11 12 12 12 13 12 12 11 11 10 9 9 8 8 7 6 4 3 4 4
2 3 3 5 4 4 4 2 2 5 6 2 2 1 0 2 2 1 3 7 8 6 5 11 15 19 21 18 16 17 18 20 22 25 26 27 30 30 30 30 30 29 26 25 25 25 24 23 22 22 22 21 20 20 20 19 17 15 15 15 14 15 17 18 18 16 17 19 18 17 14 14 14 13 12 11 11 12 13 14 14 14 13 13 12 12 11 10 10 9 9 7 5 5 5 5 5
4 5 3 3 3 3 4 3 3 3 3 1 3 1 4 5 2 1 5 8 7 6 3 10 14 16 16 15 15 16 17 20 21 23 25 25 27 27 27 28 29 29 29 28 27 27 26 24 24 24 24 23 22 22 22 21 18 17 17 17 16 14 16 18 18 18 20 21 19 18 16 16 17 15 14 13 13 15 15 15 15 15 14 14 13 13 12 11 10 9 8 7 6 6 6 6 6
6 6 2 3 2 2 2 3 3 3 2 1 2 3 6 5 2 2 8 9 4 2 6 10 13 13 13 13 14 15 15 18 21 22 24 24 23 23 24 26 27 29 31 32 31 31 30 27 27 27 26 25 24 24 24 22 21 20 19 19 18 17 16 16 17 18 20 22 21 19 18 18 18 17 16 15 16 16 17 17 17 16 15 15 15 14 12 11 10 9 8 8 7 8 8 6 6
4 5 2 4 2 0 1 1 4 2 1 2 3 5 6 3 1 3 8 7 3 6 6 9 12 13 13 12 13 16 16 20 24 23 22 22 23 25 27 28 29 31 32 33 33 32 32 32 31 31 29 27 26 26 26 25 23 23 21 20 21 20 18 16 17 18 20 23 23 21 20 19 19 19 19 18 18 18 18 18 17 16 16 15 14 13 12 12 11 10 9 9 8 8 8 7 8
5 6 3 2 2 1 2 5 4 1 2 5 6 5 6 2 1 6 8 4 6 8 8 9 11 12 13 12 11 14 17 21 24 22 21 24 26 28 29 30 32 32 33 34 33 32 32 34 34 34 33 31 30 29 28 27 26 25 23 22 23 22 21 20 21 21 21 23 24 24 23 22 22 22 21 20 19 19 19 18 17 17 16 14 14 13 12 11 11 11 10 10 10 9 9 9 10
6 7 4 3 1 1 6 6 4 4 3 5 5 5 8 6 6 9 8 4 7 8 9 9 11 10 11 11 10 10 15 19 20 21 25 29 30 31 32 34 33 32 34 34 33 33 33 32 34 33 33 34 34 33 31 31 30 28 26 25 25 24 24 23 24 24 24 24 24 25 26 26 25 23 22 21 21 20 19 19 19 18 16 15 14 13 12 12 12 12 12 12 12 11 12 12 12
5 5 4 3 0 4 8 6 4 5 3 5 6 4 9 8 9 11 9 6 8 8 9 10 9 9 9 9 9 9 13 17 20 25 29 30 31 33 35 36 35 33 33 33 34 34 32 31 32 32 32 34 35 34 33 32 32 30 29 28 28 27 27 27 27 26 26 25 24 25 27 28 27 24 23 23 21 20 18 19 19 18 15 15 15 14 13 13 13 13 13 13 14 13 13 12 12
5 4 2 3 2 4 6 6 7 5 3 6 7 6 8 5 8 11 8 8 10 10 10 10 9 8 8 8 9 9 12 19 24 29 31 30 31 33 36 36 36 35 33 33 35 35 32 31 31 32 33 33 33 34 33 32 32 31 30 30 30 30 29 29 29 28 26 26 26 26 27 29 28 26 25 24 22 20 19 19 19 17 15 15 15 15 15 15 15 14 14 14 15 15 14 12 12
4 4 2 3 4 4 5 5 10 9 4 5 8 5 8 5 8 8 5 8 9 10 10 10 10 9 9 8 9 9 10 18 25 28 30 30 30 32 35 36 35 36 35 34 35 35 34 32 31 32 33 34 34 34 32 32 32 31 30 30 30 31 31 29 30 30 28 27 27 27 27 27 27 27 26 24 22 22 21 20 19 17 16 16 16 16 16 17 17 16 15 15 16 17 16 13 13
3 4 4 5 6 3 3 3 8 10 4 4 8 5 5 4 7 5 1 8 9 10 10 10 10 10 10 9 9 9 8 12 17 24 29 30 31 32 34 35 36 36 36 35 35 35 35 34 33 33 33 35 35 34 33 32 33 32 31 30 29 30 31 30 30 32 30 29 28 27 27 26 25 25 26 26 24 24 23 22 20 18 18 18 17 17 19 19 19 19 18 17 17 18 17 16 16
4 3 2 5 6 4 2 3 4 7 7 6 9 8 7 7 6 5 2 5 8 10 11 10 10 9 9 8 8 9 9 9 12 22 30 32 33 34 34 34 35 36 36 36 35 35 36 35 34 34 34 34 34 34 33 32 33 33 31 31 30 30 31 30 29 31 32 31 30 28 27 26 25 24 26 27 27 26 25 24 23 21 20 20 20 20 21 21 21 21 20 18 18 18 18 17 17
9 8 5 2 3 5 5 4 2 8 8 7 8 9 13 12 10 8 5 1 6 9 10 8 9 9 9 8 8 9 10 10 15 23 30 32 33 34 34 33 33 35 35 35 35 35 35 36 35 35 35 34 33 33 33 32 33 33 33 32 32 31 31 30 29 31 32 33 32 30 28 27 27 26 26 27 29 29 28 27 26 24 23 23 23 24 23 23 23 23 23 21 20 19 19 18 17
13 11 7 4 4 5 5 4 4 9 7 6 9 10 12 11 12 10 8 4 4 7 7 6 7 7 8 8 8 9 10 12 18 24 28 30 32 33 34 34 34 35 35 35 35 35 36 37 36 36 36 35 34 33 34 33 33 34 34 34 34 34 33 31 31 31 31 33 33 32 31 30 29 28 27 28 30 31 31 30 29 28 27 26 27 27 27 26 26 26 26 24 21 20 20 19 17
11 9 7 6 6 4 4 4 5 6 7 7 10 10 11 11 12 10 7 6 6 8 8 7 7 7 7 9 10 11 11 14 17 21 25 29 32 33 34 34 34 34 35 36 36 37 38 37 37 38 37 36 36 36 36 36 36 35 35 36 37 36 35 34 33 33 33 33 33 33 33 32 31 31 30 30 30 31 33 33 32 31 30 29 30 30 30 29 28 28 27 25 23 22 22 21 19
7 7 7 6 6 4 4 4 4 5 5 6 5 7 11 12 11 9 6 6 8 10 10 10 10 8 8 10 12 12 11 10 10 14 21 27 29 31 32 33 34 35 35 37 38 39 38 37 38 39 38 38 38 38 37 38 38 37 37 37 37 37 36 36 36 35 34 34 33 33 34 34 33 33 32 31 31 32 33 34 34 33 32 32 32 32 32 31 30 29 28 27 25 24 24 22 21
6 6 6 6 5 3 2 2 1 4 4 4 2 4 9 11 11 10 8 9 10 10 11 12 11 10 10 11 12 11 10 9 7 10 17 24 28 30 31 32 35 36 36 37 38 38 37 38 39 39 39 40 40 39 39 39 39 38 37 36 36 35 35 36 36 35 34 35 35 35 35 34 34 34 33 33 33 33 33 34 35 35 34 34 33 34 34 33 33 32 31 29 26 25 24 23 22
5 5 5 5 4 4 2 3 1 3 3 2 1 3 7 8 9 10 11 12 11 11 12 12 10 12 13 12 11 11 12 12 10 10 13 20 25 27 30 33 35 35 35 36 38 38 38 40 41 40 40 40 40 40 40 39 37 36 36 35 33 32 32 32 33 34 35 35 36 36 37 36 35 35 35 34 34 34 34 35 35 36 36 35 35 35 36 36 35 34 33 32 29 26 24 24 23
4 5 6 5 6 6 3 2 2 2 2 1 3 5 6 6 8 11 8 7 10 11 11 11 11 13 13 10 10 11 13 13 12 12 11 15 21 26 31 34 34 33 35 37 39 40 40 41 41 41 40 40 40 40 40 39 36 34 33 31 29 27 28 28 29 33 36 37 38 38 39 38 37 37 36 36 36 35 35 35 35 36 36 36 37 37 38 37 36 36 34 33 32 29 26 24 23
3 5 7 7 8 7 5 6 5 4 3 3 2 2 6 4 5 9 5 3 8 7 8 13 14 12 9 8 10 10 11 12 13 14 13 16 21 26 30 32 31 32 36 40 41 41 41 40 40 40 40 40 40 40 40 39 37 35 33 31 29 27 28 30 33 36 37 38 40 40 39 38 37 38 37 36 36 36 37 37 37 37 37 37 37 38 38 37 36 36 35 34 34 32 29 24 23
4 6 7 7 7 8 8 8 5 3 3 3 2 4 5 6 5 9 7 6 9 6 8 13 12 10 9 10 11 11 11 11 11 11 12 16 20 23 26 30 32 34 39 41 39 39 40 40 40 40 40 40 40 40 39 39 38 36 36 36 35 33 32 35 38 37 36 37 38 38 38 38 37 38 38 38 38 37 38 38 38 38 38 38 37 38 38 37 36 35 34 34 34 33 31 27 25
3 5 7 8 8 9 10 8 4 2 3 2 4 2 3 6 6 8 7 8 11 10 10 11 9 11 12 12 13 12 12 12 10 11 11 13 19 23 27 32 36 40 41 38 36 39 41 41 40 40 40 40 40 39 38 39 39 38 38 37 37 37 38 39 36 34 34 33 34 35 36 37 38 38 38 38 38 38 38 38 39 39 39 38 37 37 37 36 35 34 33 34 34 34 33 31 29
3 3 7 8 7 7 7 6 3 1 2 1 4 2 1 7 6 4 4 5 11 12 12 12 11 12 13 13 13 12 12 11 11 12 12 14 20 26 30 34 38 42 40 37 38 40 40 40 39 38 39 39 39 38 38 40 41 40 38 37 37 39 40 39 34 31 32 31 32 33 34 35 37 37 38 38 38 38 38 38 38 39 39 38 37 37 37 36 35 35 34 33 34 34 35 34 31
2 6 8 6 5 6 4 4 4 3 1 4 5 2 0 6 6 3 2 4 10 11 9 10 10 10 11 11 11 11 10 9 10 11 12 16 22 27 31 32 35 38 38 37 38 38 37 38 37 38 39 39 38 38 39 40 40 40 39 38 39 39 38 35 33 32 32 31 32 32 32 33 34 35 37 37 38 37 37 37 37 38 38 37 36 36 36 36 35 35 34 34 34 35 36 35 33
7 7 7 7 5 5 3 2 4 2 3 4 7 6 3 4 5 4 5 6 7 7 7 9 8 8 9 9 9 10 9 9 10 10 12 16 22 25 27 28 30 33 33 33 33 34 35 36 36 38 40 39 38 38 39 40 40 40 41 41 41 41 37 33 33 33 32 31 32 31 31 31 32 33 35 36 37 37 37 37 36 36 36 36 36 36 35 35 35 35 35 34 34 34 35 35 35
8 5 5 5 3 3 2 3 2 3 4 3 8 7 6 5 7 4 5 7 6 6 7 8 8 8 8 7 8 8 8 9 9 9 10 12 15 18 21 23 27 28 27 29 32 33 34 35 36 38 39 38 38 38 39 39 39 41 43 42 42 42 38 35 35 34 32 31 31 30 30 30 30 31 32 34 36 36 37 38 37 36 35 35 35 35 35 34 34 34 33 33 34 34 35 35 35
6 5 8 6 2 1 2 2 1 4 3 2 5 5 4 9 9 6 10 12 11 9 8 8 9 10 9 7 7 8 7 8 9 8 9 9 9 14 19 23 25 26 28 31 34 34 35 36 36 37 39 40 39 39 39 39 39 41 43 43 43 41 37 36 36 34 32 31 31 30 30 30 30 31 31 33 34 34 35 36 36 37 37 37 36 35 35 34 33 33 33 33 33 33 34 35 35
9 8 10 8 5 4 5 3 0 2 2 0 3 3 3 6 6 9 16 18 15 9 7 9 10 11 11 8 7 7 7 8 8 8 9 8 9 14 20 24 26 27 30 32 34 35 36 36 35 37 39 38 37 38 38 39 40 42 42 42 41 38 36 36 36 34 32 31 31 31 31 31 31 32 32 33 33 33 33 34 34 35 36 37 36 35 34 34 34 33 33 32 33 33 34 35 36
9 5 6 6 5 4 5 4 2 2 1 1 1 2 4 3 3 8 11 12 12 8 7 8 8 10 9 7 6 6 7 7 7 7 8 9 11 16 19 22 25 27 30 32 33 34 34 34 35 37 39 37 36 38 38 39 41 42 40 40 39 37 36 36 35 35 34 33 33 32 32 32 33 33 33 33 32 31 32 33 32 33 34 34 34 34 34 34 34 35 35 35 35 36 36 36 36
4 2 4 4 5 4 3 3 3 4 2 2 2 4 4 4 9 12 8 9 9 8 8 7 8 8 6 6 6 6 6 6 6 7 8 9 12 15 17 20 24 26 28 30 32 33 33 34 35 37 39 37 36 37 39 40 41 39 38 37 37 36 36 35 36 36 35 35 34 34 34 34 34 33 33 32 31 31 32 32 32 32 31 31 32 33 33 34 34 34 34 33 33 35 35 35 34
2 3 7 4 3 6 5 1 2 4 2 3 3 5 5 4 10 13 11 10 9 7 8 8 8 6 4 6 7 6 6 5 5 6 6 7 9 14 18 22 25 27 29 30 32 34 35 35 36 36 37 36 35 36 38 38 37 35 34 35 35 35 35 36 37 36 36 35 35 34 34 34 33 33 32 31 31 31 31 31 31 30 30 30 31 31 32 33 33 32 30 29 30 32 33 33 34
6 6 7 4 3 3 4 2 2 2 4 4 3 7 4 2 6 6 7 9 8 6 6 7 6 4 5 8 7 7 7 5 5 5 6 7 8 12 17 21 24 27 28 30 30 30 31 33 34 34 35 35 34 34 33 32 32 31 32 32 33 35 35 36 36 35 34 33 33 33 33 32 32 31 30 29 29 29 29 29 30 29 29 29 30 31 32 32 32 31 31 31 31 32 34 35 36
5 7 7 5 2 3 3 4 3 3 4 3 3 5 4 6 6 6 7 8 7 6 4 4 6 6 7 8 8 8 7 5 6 6 6 6 8 13 17 20 22 22 22 23 23 23 24 26 28 29 31 31 30 28 27 27 27 29 31 32 33 33 33 33 32 31 31 30 30 30 30 30 29 27 27 26 26 26 27 28 28 28 28 28 29 30 31 31 32 31 32 33 31 28 30 34 35
3 5 6 3 2 4 5 3 3 4 4 3 2 3 5 7 6 9 14 13 11 9 6 5 8 9 9 8 7 7 6 6 7 7 8 7 9 15 18 17 17 16 15 16 16 17 19 21 23 25 25 25 24 23 23 25 27 28 29 30 29 29 28 28 27 27 27 27 27 26 26 27 26 25 24 24 24 24 24 24 25 26 27 28 28 28 28 29 30 29 29 31 30 27 27 30 33
6 8 8 5 2 2 2 2 2 4 4 3 2 3 6 6 6 11 16 15 12 10 7 7 9 9 9 8 7 7 7 7 7 7 8 7 10 14 13 10 10 11 12 13 14 16 17 18 20 21 22 22 22 23 24 26 27 27 27 26 25 25 24 24 24 24 24 24 23 23 23 23 23 22 22 21 22 22 22 22 23 24 24 25 26 26 26 26 27 28 27 26 27 29 30 30 30
8 8 9 8 5 4 4 4 2 3 4 4 4 4 7 6 5 9 12 11 9 8 7 8 8 9 10 8 7 7 7 7 8 7 7 6 8 9 7 7 8 10 12 14 15 16 17 18 18 19 20 21 22 23 24 24 24 24 24 23 22 21 21 21 21 21 22 21 21 21 21 21 20 20 20 20 20 20 20 20 20 21 23 24 26 26 26 26 27 28 27 26 26 28 31 31 29
Wind_Direction
348 2 4 353 343 359 50 73 56 329 75 69 314 79 247 244 119 76 57 18 52 10 325 39 61 74 93 108 123 117 83 134 161 153 207 170 148 159 166 161 160 158 158 156 155 155 151 144 140 136 133 131 130 124 123 120 116 117 115 118 117 114 118 117 119 115 110 109 109 108 107 113 115 113 111 110 104 100 100 99 98 96 95 92 93 93 91 90 88 90 96 101 106 104 99 94 88
347 360 4 359 4 46 293 72 86 334 48 67 302 130 267 332 45 113 126 113 114 125 100 89 81 82 99 118 126 98 42 345 132 138 116 132 140 155 165 166 164 163 161 157 156 154 150 146 142 139 136 132 128 124 122 122 120 121 120 120 119 115 116 116 119 120 119 114 113 111 110 115 115 112 109 107 101 99 103 102 100 95 93 92 94 95 92 91 89 92 101 107 108 105 99 93 90
348 353 359 2 14 53 39 44 81 55 73 105 274 274 299 58 118 191 155 132 144 150 123 100 88 83 99 97 68 69 67 313 71 84 117 136 138 152 162 166 167 169 163 155 155 153 151 147 143 140 139 133 124 122 120 120 120 119 119 119 119 118 118 118 119 122 122 117 116 115 112 115 116 113 110 106 99 100 104 104 102 99 97 96 96 98 95 93 92 95 103 108 108 104 100 94 91
351 352 357 13 29 31 53 44 102 110 112 158 213 277 263 136 165 205 187 161 167 156 136 92 69 19 76 94 74 73 141 274 110 117 139 150 149 155 160 162 167 169 162 156 155 153 153 149 146 143 138 134 128 125 122 122 122 121 120 118 120 119 119 120 121 122 121 119 117 116 114 114 115 113 109 105 102 102 103 103 101 100 102 100 97 97 94 93 92 96 103 108 109 108 103 98 93
352 5 19 55 67 28 76 62 78 96 165 178 144 259 241 173 170 196 243 248 85 93 111 89 75 344 53 96 133 110 154 136 149 147 138 154 152 153 158 161 166 166 162 159 157 155 154 150 148 143 137 136 132 130 129 128 127 125 125 122 122 119 117 120 123 123 121 121 118 117 115 114 114 111 108 107 108 105 101 100 101 100 99 98 97 97 94 93 93 99 106 109 113 112 108 104 99
357 28 50 62 88 145 90 54 17 48 214 168 141 228 223 199 174 166 156 65 42 59 96 84 111 108 64 32 20 129 169 131 154 161 143 150 151 152 155 157 162 163 163 163 160 157 154 151 147 143 138 138 136 137 136 130 130 131 129 127 127 123 120 120 124 124 122 122 120 118 116 118 120 116 114 111 111 110 106 102 101 100 98 98 99 98 97 97 97 103 109 111 115 116 113 110 107
7 24 43 54 48 32 89 124 206 242 255 166 155 180 200 215 188 144 118 97 42 33 74 98 126 108 83 283 36 42 215 175 155 156 150 150 152 154 155 152 153 156 162 166 164 159 155 152 149 145 139 139 139 142 138 131 134 136 132 131 131 128 127 125 130 131 124 122 122 120 117 117 120 118 116 112 109 113 115 109 105 104 103 104 103 101 99 100 101 105 109 111 113 115 115 112 109
13 21 66 74 36 20 90 168 231 201 25 151 162 172 185 196 188 135 120 134 105 50 81 135 134 95 335 58 87 311 217 177 158 151 150 147 153 158 159 156 153 155 159 166 165 160 158 153 151 148 142 140 139 141 140 137 136 134 134 133 130 130 131 131 137 139 130 124 123 124 122 117 118 118 115 113 111 114 116 110 109 110 109 110 109 107 103 102 105 107 107 109 111 111 112 109 106
24 29 71 74 53 23 23 317 271 223 105 145 164 181 185 188 179 128 119 121 146 103 83 173 138 102 164 60 88 312 102 158 154 149 151 148 155 159 161 161 158 159 159 165 167 163 159 156 155 152 147 141 138 138 139 138 134 135 136 133 130 132 133 131 134 138 135 127 124 124 122 121 123 123 121 120 118 118 115 111 113 115 114 113 111 110 107 106 107 107 106 107 109 110 111 108 105
35 23 92 70 53 32 343 305 245 191 181 192 191 188 185 186 159 125 126 133 145 99 72 112 82 107 134 91 103 294 132 151 149 149 153 153 159 160 160 163 162 161 162 168 168 165 160 158 159 157 151 144 143 138 134 135 136 139 139 134 133 135 135 134 131 132 134 129 127 123 122 125 128 131 131 128 125 122 119 117 121 122 119 115 114 113 110 111 110 108 106 105 106 108 110 107 102
41 354 93 73 50 52 291 267 256 199 195 221 202 209 199 165 119 99 108 123 125 106 146 63 81 118 111 104 261 164 147 149 150 151 154 158 165 165 159 164 168 165 166 169 168 165 162 161 163 161 155 150 150 144 140 143 144 143 140 138 138 140 136 133 132 131 132 132 132 128 131 136 134 137 135 132 130 125 125 126 126 126 123 121 123 121 115 114 113 110 107 105 103 103 106 108 105
91 342 64 87 167 218 212 181 241 250 302 227 172 229 204 139 116 131 127 129 125 104 173 142 136 146 97 115 246 155 154 154 156 153 156 163 167 168 162 166 169 167 166 168 167 165 164 163 166 167 162 157 157 154 152 154 155 149 146 144 143 145 143 138 134 132 135 136 139 140 145 147 144 146 142 138 137 132 133 135 133 132 129 127 128 124 119 118 115 112 109 104 101 100 100 105 110
116 114 89 119 189 171 170 148 225 280 314 235 183 237 136 120 139 165 138 111 133 109 116 161 142 120 93 156 149 160 169 164 159 155 163 167 167 166 164 166 165 164 166 168 168 165 166 167 169 171 167 164 164 162 162 164 164 158 156 155 151 150 151 148 140 141 146 146 150 154 154 155 152 151 151 146 145 144 144 143 141 140 135 132 130 124 123 122 119 115 111 105 100 96 92 95 104
128 145 115 174 183 125 164 143 200 191 238 254 242 279 81 99 164 170 129 102 194 145 122 135 131 106 101 161 141 190 186 169 163 163 169 167 166 165 163 165 162 163 167 171 169 166 170 172 173 175 173 173 172 169 170 174 172 163 163 165 164 162 164 161 154 158 162 160 162 164 161 161 158 154 155 153 153 155 153 150 146 145 141 135 131 128 128 125 122 118 112 107 101 94 86 87 94
140 145 90 118 351 22 202 169 181 170 196 240 241 178 77 72 143 132 130 133 228 224 122 123 138 129 164 170 182 199 182 171 165 164 164 162 164 163 164 164 160 166 169 172 171 170 174 177 178 179 181 183 181 178 177 180 179 173 170 171 174 175 177 174 168 169 169 170 169 169 169 166 164 161 158 158 159 161 158 156 154 151 145 138 135 133 132 129 125 120 114 109 102 94 86 88 93
122 117 71 94 293 299 226 194 150 153 205 227 233 139 89 7 136 111 187 144 132 319 56 115 178 183 164 175 195 180 173 168 162 160 154 154 159 160 164 163 162 167 170 174 175 176 179 180 183 183 184 189 189 186 182 183 183 183 179 179 180 178 179 176 173 175 172 174 172 169 173 172 172 171 169 169 168 167 165 165 163 158 150 143 141 138 135 132 128 123 118 115 105 94 88 93 97
63 86 88 114 206 199 210 184 164 173 217 232 250 171 118 63 322 120 321 90 94 14 30 32 339 22 167 202 180 165 166 164 161 160 152 150 156 158 162 165 165 168 172 177 180 182 182 183 186 186 188 193 194 191 189 187 187 188 186 185 184 182 181 177 176 178 178 179 177 172 175 178 181 182 183 183 182 177 175 177 173 166 160 151 147 142 139 137 133 129 125 122 115 100 96 101 102
61 99 139 186 191 201 194 181 198 189 185 206 219 171 134 147 200 166 49 63 74 47 23 4 11 21 139 158 151 156 160 160 161 162 158 153 155 159 165 168 168 169 175 178 184 186 185 188 190 190 192 196 197 196 194 192 192 191 188 186 184 184 184 183 182 182 186 186 183 181 180 184 187 190 193 194 194 189 185 186 182 178 171 160 153 148 146 146 143 140 136 134 129 115 107 111 111
97 128 139 203 195 204 206 182 197 203 185 190 197 161 138 156 170 140 119 133 114 81 13 359 35 37 81 126 142 152 157 158 162 164 164 164 162 164 169 173 172 172 176 179 185 188 189 192 192 193 196 198 199 199 199 197 195 192 190 188 184 184 186 186 186 187 191 189 186 186 187 189 192 195 200 202 202 198 193 189 185 185 177 165 160 157 156 156 157 157 155 154 151 143 123 126 127
146 122 133 218 199 179 238 202 174 206 172 144 170 140 128 168 171 143 148 160 153 146 172 76 104 140 120 132 145 153 158 160 164 166 169 175 173 171 172 177 177 178 180 179 182 187 192 195 196 198 200 201 202 202 201 201 197 194 194 193 189 187 187 188 189 190 190 187 185 184 184 184 185 189 194 201 204 201 197 191 188 185 177 171 169 168 168 170 172 174 175 178 176 178 141 133 153
155 130 173 211 143 131 246 252 184 60 131 139 181 100 115 196 165 141 144 146 207 223 202 188 180 170 155 153 155 160 165 166 169 170 172 178 181 181 180 182 182 182 183 181 181 185 190 194 198 202 204 204 206 205 203 203 200 197 197 199 198 194 191 191 192 191 187 185 182 179 179 177 176 178 181 191 201 202 199 195 191 186 180 178 178 179 181 184 188 190 192 193 195 198 144 87 169
160 195 202 196 128 149 242 247 222 87 114 109 124 126 139 208 113 152 149 155 221 222 208 197 174 165 164 165 164 167 173 175 177 177 177 180 185 189 190 188 187 185 186 188 188 186 188 192 195 200 204 205 208 209 206 206 205 203 203 203 204 201 196 194 195 195 189 185 182 181 184 184 184 187 187 189 201 205 200 198 194 190 189 188 188 191 194 197 201 203 203 201 208 211 168 136 158
191 227 221 204 163 163 218 227 128 99 107 104 148 181 358 63 171 184 162 185 225 218 197 187 174 169 165 162 164 171 179 184 186 186 184 183 187 192 195 194 193 190 187 193 195 191 190 193 195 199 204 205 208 211 210 209 210 211 209 208 209 206 201 199 199 198 191 187 187 189 194 198 196 197 200 202 209 209 200 197 196 195 196 197 200 203 205 210 213 213 210 210 216 214 193 180 177
193 218 220 196 176 169 185 159 110 99 114 142 163 140 12 175 185 160 197 226 236 243 199 170 168 163 159 161 171 179 183 188 192 193 192 190 191 193 196 197 196 195 193 193 196 196 195 196 197 200 206 209 209 210 212 212 214 215 212 210 210 207 206 205 203 197 189 189 191 197 204 210 205 201 209 215 218 213 204 200 200 201 203 205 209 211 214 217 219 221 220 222 220 211 207 204 205
217 217 216 163 154 205 194 130 122 123 136 129 90 110 245 218 181 119 242 250 243 242 176 151 155 154 162 172 180 184 186 191 196 197 197 198 196 195 197 199 199 199 200 198 195 196 198 200 200 200 206 210 211 210 211 213 215 215 212 211 209 206 208 207 203 196 189 191 195 202 210 213 207 206 215 225 226 218 210 207 206 207 208 211 215 218 221 223 224 228 229 222 209 207 211 214 223
217 204 187 127 132 239 191 146 176 189 191 127 97 279 271 237 192 257 247 245 238 159 132 146 151 158 175 180 184 187 188 193 196 199 201 202 199 198 199 200 202 203 205 203 200 201 201 202 202 202 206 210 210 209 210 212 215 217 214 214 212 209 209 206 205 200 194 194 198 204 211 210 206 211 221 229 230 221 214 215 214 214 214 215 219 222 226 230 231 231 225 209 203 209 214 223 238
196 181 132 117 131 290 79 251 238 223 250 193 187 257 279 275 202 248 261 245 160 115 136 158 157 170 184 184 189 190 192 197 197 197 199 201 201 201 202 201 204 206 206 205 206 206 205 205 206 206 209 211 209 209 212 214 217 220 219 217 214 213 212 210 211 209 204 200 202 207 211 211 210 217 224 228 230 223 219 221 220 219 221 221 224 227 229 233 233 227 214 205 212 221 223 236 251
173 160 100 119 135 14 312 295 265 184 259 191 175 258 280 309 215 224 251 234 150 146 156 170 172 180 187 188 192 192 198 202 197 194 195 201 203 202 204 204 205 207 207 207 208 208 207 207 209 210 211 212 211 212 215 217 219 221 220 218 217 216 216 217 214 214 214 208 207 210 212 213 214 219 224 225 226 223 223 225 225 225 226 228 232 234 231 230 227 220 214 215 224 229 232 242 253
163 156 140 191 148 267 237 259 237 174 220 182 145 305 272 228 217 224 231 180 147 160 165 179 188 189 190 191 192 196 203 201 196 199 202 203 204 204 206 207 207 208 210 211 210 209 209 209 210 212 213 213 214 216 218 221 223 222 221 220 220 217 218 222 218 215 217 214 212 213 214 216 217 219 222 221 221 220 222 226 226 227 228 231 235 233 225 222 220 219 221 227 230 233 239 246 252
148 158 152 163 20 278 219 210 202 178 200 163 136 280 258 226 227 228 219 168 148 168 181 188 195 196 196 194 194 201 203 198 199 206 207 206 205 206 208 209 209 210 213 213 212 211 212 212 212 214 214 214 215 218 221 222 223 222 221 222 222 220 220 224 223 219 219 218 217 216 215 218 221 221 220 218 218 219 223 227 226 227 227 228 228 224 219 217 219 223 226 233 237 239 244 248 248
133 147 141 149 185 263 236 202 184 183 208 148 136 246 255 250 249 235 212 174 165 181 197 196 197 199 198 198 200 205 204 201 205 209 210 208 207 208 210 210 210 212 214 213 213 213 213 214 215 217 216 216 217 219 222 221 221 221 220 222 223 223 224 224 224 223 222 221 220 219 217 220 224 225 222 220 220 222 227 230 228 225 224 222 220 219 218 219 222 227 229 236 243 242 241 242 243
140 157 171 198 204 251 282 224 186 193 220 150 147 233 269 260 256 253 196 175 181 192 204 203 201 201 198 202 204 208 211 208 210 212 212 212 210 210 212 212 211 212 214 214 214 214 214 216 217 219 219 218 219 221 223 222 221 221 222 224 225 226 227 227 224 223 224 224 224 224 224 224 226 226 224 223 224 225 229 233 232 227 221 220 220 219 220 223 226 229 231 237 244 241 237 240 245
195 172 166 204 208 223 292 271 204 190 167 179 192 226 290 261 253 287 161 179 196 207 212 209 206 207 203 202 206 209 213 212 214 216 215 213 213 213 213 213 212 213 215 215 215 214 214 216 218 220 221 221 221 222 222 221 221 222 224 225 226 227 228 229 225 223 225 226 226 228 229 231 230 226 224 224 226 228 230 234 235 230 224 224 225 224 224 228 231 231 232 237 244 242 241 245 247
188 178 191 223 206 186 218 280 242 175 161 204 215 231 251 249 266 318 356 175 196 216 218 212 209 212 209 205 207 211 212 213 216 216 214 213 214 215 216 215 214 214 216 217 217 217 216 217 218 220 223 223 223 224 223 222 221 223 225 227 229 228 229 228 225 224 225 226 228 229 231 233 233 229 225 224 227 229 231 234 236 234 229 228 229 229 230 232 233 233 232 239 247 243 240 244 247
176 188 202 228 203 194 206 244 217 166 182 209 207 236 245 255 279 294 305 195 188 223 226 219 217 214 214 210 209 212 213 218 221 216 213 212 213 214 216 217 216 215 216 217 218 219 218 219 219 220 222 223 224 225 225 223 222 224 225 227 230 231 232 231 229 227 226 226 228 230 231 232 233 232 229 226 227 229 231 233 235 235 233 231 231 231 232 233 233 232 232 240 247 241 238 243 246
183 187 182 163 179 221 221 230 222 169 178 216 209 231 244 255 267 266 276 265 217 243 244 237 231 223 220 216 217 216 214 223 225 219 214 212 212 213 214 216 217 217 216 217 217 219 219 219 218 219 220 221 222 223 223 222 221 223 224 225 227 230 232 233 234 232 229 228 228 229 231 232 232 233 233 231 229 229 231 233 235 236 235 233 232 231 232 234 234 232 233 240 244 239 237 239 243
188 175 173 181 184 234 233 225 246 171 164 225 220 235 249 250 256 256 269 280 265 257 250 243 234 226 224 220 223 220 218 226 224 217 215 214 213 213 213 214 215 217 216 215 216 218 219 218 217 217 218 219 219 219 219 218 218 218 220 222 225 227 230 232 234 234 233 231 230 231 232 232 233 233 234 234 232 231 231 233 235 236 236 234 233 234 236 238 238 236 236 240 241 238 236 235 238
192 170 174 197 197 226 235 222 242 177 175 250 244 247 256 256 261 263 267 268 255 243 242 243 233 225 222 221 225 223 225 229 215 209 212 212 213 212 212 212 212 214 215 214 216 217 218 217 218 218 218 217 218 219 218 219 219 219 219 221 224 226 228 230 232 234 235 236 235 235 235 235 236 235 236 236 235 234 233 234 235 236 237 235 236 237 238 240 239 237 237 239 240 238 239 237 235
186 179 172 196 208 214 275 302 255 166 187 262 276 250 258 261 262 260 249 244 244 235 232 236 231 226 225 221 224 224 229 229 207 207 211 209 211 210 209 211 212 214 215 215 216 217 217 217 218 219 218 218 219 219 220 221 222 223 223 225 225 227 229 232 235 236 237 239 239 239 239 239 239 239 238 238 237 237 236 236 237 238 238 237 237 237 238 239 239 238 237 238 238 236 238 239 235
180 178 169 196 199 171 229 284 177 151 181 232 305 289 271 264 264 259 241 233 241 238 234 237 231 227 228 222 217 216 220 223 216 214 213 209 209 208 208 211 213 213 214 215 216 216 216 218 219 218 218 219 220 221 222 224 225 225 226 228 230 232 235 236 238 239 239 241 241 241 241 240 240 240 240 240 239 240 240 240 240 240 240 240 239 239 238 238 238 237 237 236 236 234 235 236 234
195 183 179 194 189 180 184 158 122 17 327 359 9 321 286 255 253 257 246 235 243 239 236 244 239 232 234 229 221 219 217 215 213 214 213 208 207 207 208 211 212 211 213 215 215 216 216 218 219 219 219 220 221 222 224 224 223 223 223 225 229 233 235 236 237 238 238 239 240 241 241 241 241 242 242 241 241 242 242 242 243 243 243 242 241 240 240 240 239 238 237 236 235 234 235 235 233
212 213 198 184 177 173 137 124 98 46 306 310 32 300 287 286 264 262 270 273 255 239 228 238 241 236 234 234 230 226 224 219 214 212 208 205 206 207 209 210 210 211 214 217 217 217 217 218 219 218 219 220 221 223 223 222 221 220 219 218 221 224 228 229 230 233 234 235 238 240 241 242 242 243 243 243 243 243 243 244 244 244 244 244 243 242 242 241 241 240 238 236 236 237 237 234 232
203 226 195 159 144 139 136 142 117 114 227 298 73 184 267 307 285 267 275 274 266 257 237 240 244 239 227 226 229 224 222 223 223 219 209 206 205 204 207 209 209 212 217 218 218 218 218 218 219 218 219 220 221 222 221 220 219 219 220 220 222 223 227 231 232 234 235 237 239 240 241 242 242 243 243 244 245 244 244 244 244 244 245 245 245 244 243 242 241 241 240 237 238 239 237 232 232
217 221 164 131 122 141 152 149 130 165 194 346 23 128 265 289 264 262 278 281 276 271 258 251 242 236 231 226 227 223 219 216 218 221 214 210 207 204 206 208 210 215 218 217 215 217 218 218 219 219 220 221 222 221 220 219 219 219 221 222 225 227 230 235 237 236 238 240 242 242 243 243 243 244 244 244 245 245 245 245 244 244 245 245 246 246 246 245 243 243 242 240 240 240 238 234 233
230 182 144 136 130 141 145 130 110 68 114 281 310 70 269 275 265 272 291 270 267 264 257 253 240 233 234 231 229 224 220 215 212 217 215 212 211 209 210 210 213 216 217 216 216 218 219 218 219 219 220 222 222 221 220 220 220 220 221 222 226 230 233 237 239 240 241 241 243 244 245 245 245 245 246 246 245 245 245 245 244 244 245 246 246 247 248 248 246 244 243 242 241 241 240 238 235
168 118 99 87 89 90 94 114 106 57 78 226 231 137 200 272 255 239 253 242 249 252 252 254 248 241 236 235 235 226 220 217 215 219 219 216 215 214 215 215 216 217 217 217 218 218 218 218 218 219 221 221 221 222 221 222 221 221 222 224 227 231 233 236 239 241 242 242 243 245 245 246 245 245 245 245 245 244 245 246 246 245 247 247 247 248 249 248 247 246 246 246 244 243 242 239 237
125 105 83 68 54 51 57 63 83 101 257 219 193 169 131 287 263 213 219 235 235 238 252 260 261 259 247 237 234 225 216 215 215 220 224 222 221 220 219 219 220 220 219 218 219 218 218 218 217 219 222 221 220 222 222 223 222 222 224 226 229 232 233 234 236 238 240 240 242 244 245 246 246 246 245 245 245 244 245 247 248 248 249 248 249 250 249 248 248 248 248 247 246 245 243 241 240
129 113 115 101 39 24 38 11 64 199 241 203 182 161 136 231 258 234 239 258 246 226 237 257 265 267 258 244 241 231 217 215 215 218 222 221 221 221 219 221 222 221 218 218 219 219 219 219 218 220 222 221 221 222 223 223 223 224 226 228 230 233 233 232 234 237 237 238 240 243 245 246 247 247 247 246 246 246 247 249 250 250 250 249 249 250 251 251 250 250 249 247 248 247 244 242 241
147 139 148 148 144 159 190 208 175 213 248 199 168 141 165 235 256 270 265 262 251 233 226 245 261 268 268 259 251 242 221 215 214 215 220 216 213 214 214 217 220 218 217 218 218 219 220 220 219 220 223 223 221 222 223 223 224 226 228 229 231 233 233 233 235 238 238 238 240 241 243 245 245 247 247 247 249 249 250 251 251 251 250 250 251 251 253 254 253 251 249 248 248 248 247 244 241
174 166 167 169 162 179 197 187 196 221 235 259 150 135 259 272 277 254 249 253 256 252 235 237 246 255 262 264 261 252 233 221 216 212 215 213 212 211 211 215 217 216 217 218 218 219 219 220 220 222 225 225 222 222 223 224 226 229 229 230 232 232 233 234 236 238 239 240 242 243 244 245 247 249 250 252 255 256 256 255 254 253 253 253 253 252 253 254 254 253 252 252 253 252 251 248 245
182 168 154 165 167 183 190 177 200 193 138 324 186 181 205 208 259 242 234 252 266 266 255 254 258 254 253 267 276 261 239 228 221 219 219 218 217 213 213 215 217 219 219 219 220 219 218 219 219 222 226 226 224 224 224 225 228 230 230 231 233 233 234 236 238 240 242 243 245 246 248 249 251 253 256 258 261 262 261 259 257 255 255 255 255 254 254 254 253 253 254 254 254 254 253 249 247
204 140 139 184 178 149 135 165 165 127 113 253 212 230 217 206 279 280 259 249 254 258 265 270 268 258 241 251 263 256 245 234 222 223 227 229 224 218 217 218 220 223 223 221 221 220 219 220 220 223 227 227 226 226 226 228 230 231 231 232 234 235 236 238 241 242 243 245 247 249 251 254 256 258 260 262 263 263 263 261 259 258 257 256 256 255 255 254 252 250 251 253 254 254 250 247 250
171 169 179 190 138 119 114 141 67 88 181 233 206 245 288 317 284 282 276 266 256 243 244 245 248 239 208 228 242 247 251 244 228 227 232 233 224 217 217 218 220 223 224 224 224 223 222 222 222 224 227 227 227 228 229 229 230 231 232 234 236 237 239 241 243 244 245 247 249 251 253 256 258 259 261 262 263 262 261 261 260 259 259 258 257 257 255 253 252 251 254 261 265 263 256 253 254
148 189 187 134 72 90 111 129 36 88 218 259 235 234 266 287 262 292 309 290 274 242 232 248 252 220 206 227 232 235 247 258 262 257 252 246 233 223 219 218 220 221 223 225 225 223 222 222 222 223 224 226 226 227 228 229 230 232 234 236 238 240 241 243 244 246 247 249 249 251 253 255 257 258 259 260 261 260 260 260 260 260 262 261 259 257 255 253 253 255 258 261 263 262 258 255 253
162 181 172 138 161 207 159 155 183 189 216 274 281 252 235 208 229 281 282 267 269 270 268 267 251 224 219 230 230 235 251 267 268 257 248 245 237 230 224 221 222 222 223 225 225 223 222 222 223 225 227 228 228 227 227 229 232 236 238 240 241 241 242 244 245 247 248 248 250 251 252 254 256 257 258 259 259 259 260 260 260 261 262 261 259 257 256 255 254 255 258 258 259 261 258 253 251
87 147 170 168 183 192 180 166 163 173 196 236 295 302 252 221 218 242 249 250 252 256 259 245 236 229 226 224 220 225 233 235 235 235 236 235 235 233 228 227 227 224 223 225 225 225 226 227 227 228 230 230 229 229 229 233 235 236 237 238 239 240 242 243 245 245 246 247 249 251 252 254 256 257 258 259 259 260 260 261 262 262 260 258 256 255 255 255 253 253 257 258 258 262 262 255 252
160 169 183 189 144 109 169 177 124 136 166 192 220 267 259 245 212 219 235 245 244 241 241 239 237 234 234 227 214 213 219 224 225 225 228 230 235 235 231 229 223 217 219 221 222 224 224 225 226 226 227 226 227 228 229 233 234 234 235 236 237 239 240 241 242 242 243 245 247 248 250 253 254 255 256 256 258 260 261 262 261 260 259 258 256 256 255 255 257 259 263 265 263 261 262 259 255
180 184 187 186 166 128 166 208 181 149 169 171 176 241 263 251 212 216 230 241 243 228 217 230 240 236 236 232 219 212 215 225 226 223 225 228 236 235 224 216 211 211 217 219 220 222 221 222 222 222 223 224 224 226 228 231 232 232 233 234 234 235 235 236 236 237 239 240 242 244 246 248 249 250 251 252 255 257 258 258 257 257 258 258 257 255 250 250 254 257 259 266 269 265 263 262 258